Location: ??????
(38.3286°N, 23.7012°E)
Time: 06:02:27
(UTC+00:00)

Daily predictions for brighter satellites

Satellite Brightness Start Highest point End
(mag) Time Altitude Azimuth Time Altitude Azimuth Time Altitude Azimuth
PSLV R/B 4.4 15:27:22 10° S 15:31:31 56° W 15:35:45 10° NNW
USA 234 3.8 15:25:42 10° ENE 15:31:56 46° SE 15:38:09 10° SSW
ARGOS 4.3 15:28:15 10° S 15:33:29 50° W 15:38:45 10° NNW
Cosmos 2056 Rocket 4.2 15:31:17 10° SSE 15:36:09 36° E 15:41:04 10° NE
SMAP 3.2 15:32:34 10° SSE 15:37:05 54° ENE 15:41:38 10° N
Meteor 1-25 Rocket 4.4 15:32:40 10° N 15:38:07 49° ENE 15:43:28 10° SSE
Cosmos 1023 Rocket 4.4 15:35:30 10° NNW 15:40:39 77° ENE 15:45:43 10° SSE
Cosmos 2251 Rocket 3.6 15:36:11 10° N 15:41:28 57° ENE 15:46:43 10° SSE
Helios 1A 3.7 15:39:10 10° NNE 15:42:56 33° E 15:46:38 10° SSE
Nadezhda 4 Rocket 4.1 15:38:10 10° S 15:44:18 86° W 15:50:27 10° N
Cosmos 1092 Rocket 4.1 15:41:43 10° SSE 15:47:36 51° E 15:53:30 10° NNE
AQUARIUS 4.3 15:44:02 10° SSE 15:48:21 53° ENE 15:52:42 10° N
Cosmos 1602 4.5 15:47:00 10° NNW 15:50:40 54° W 15:54:18 10° S
COSMOS 2455 3.6 15:47:18 10° S 15:52:31 32° ESE 15:57:37 11° NE
Meteor 1-31 Rocket 2.6 15:49:50 10° SSE 15:53:28 64° ENE 15:57:10 10° N
Meteor 2-2 Rocket 4.3 15:48:25 10° S 15:54:10 83° E 16:00:04 10° N
Cosmos 1190 Rocket 4.4 15:51:38 10° N 15:56:38 41° ENE 16:01:34 10° SE
Meteor 1-20 Rocket 4.3 15:52:58 10° N 15:58:37 90° SSW 16:04:21 10° S
Cosmos 1603 3.6 15:53:43 10° NNW 15:59:24 77° ENE 16:05:00 10° SSE
Delta 2 Rocket 4.4 15:55:42 10° SW 16:00:11 42° SSE 16:03:45 13° E
Lacrosse 4 Rocket 2.0 15:56:07 10° NNW 16:00:22 62° WSW 16:04:28 10° SSE
Cosmos 1371 Rocket 4.0 15:55:34 10° S 16:00:43 64° ESE 16:05:57 10° NNE
SKYMED 2 4.1 15:59:29 10° NNE 16:03:32 37° E 16:07:33 10° SSE
Cosmos 1933 3.2 16:03:57 10° S 16:07:55 82° E 16:11:55 10° N
Cosmos 1271 Rocket 3.7 16:04:57 10° NNE 16:08:15 26° ENE 16:11:31 10° SE
Cosmos 220 Rocket 4.1 16:04:48 10° N 16:08:57 46° ENE 16:12:59 10° SE
Cosmos 1140 Rocket 4.1 16:04:27 10° NNW 16:09:32 59° WSW 16:14:33 10° S
Cosmos 1420 Rocket 4.0 16:07:47 10° SSW 16:13:01 89° ESE 16:18:20 10° NNE
Cosmos 1943 4.3 16:14:26 10° NW 16:19:50 48° WSW 16:25:13 10° S
Cosmos 1782 3.5 16:17:32 10° SSW 16:21:21 54° W 16:25:12 10° N
Cosmos 1624 Rocket 4.0 16:18:05 10° SSW 16:23:19 83° WNW 16:28:32 10° NNE
CBERS 1 LM4 rocket 4.2 16:24:44 10° SSE 16:29:27 64° ENE 16:34:09 10° N
Radarsat Rocket 3.9 16:24:19 10° SSE 16:30:02 63° ENE 16:36:02 10° N
CZ-4B R/B 3.4 16:26:20 10° SSE 16:31:24 86° ENE 16:36:21 10° NNW
Cosmos 2221 2.4 16:28:05 10° S 16:32:18 90° WSW 16:36:32 10° N
Lacrosse 5 3.4 16:30:01 10° W 16:34:21 28° NW 16:37:55 14° NNE
H-2A R/B 3.7 16:34:05 10° SW 16:36:10 16° S 16:39:43 10° SE
SL-4 R/B 1.3 16:35:34 10° SW 16:38:52 82° SE 16:39:26 59° ENE
ADEOS 3.6 16:35:13 10° SSE 16:40:16 53° ENE 16:45:20 10° N
EO 1 Delta rocket 4.4 16:36:43 10° SSE 16:43:17 56° ENE 16:48:31 10° N
RESURS DK-1 2.2 16:40:43 10° NNW 16:44:47 61° ENE 16:46:37 30° SE
ATLAS 2AS CENTAUR R/B 2.6 16:38:02 10° NNW 16:44:48 62° NE 16:51:10 10° SE
Okean 3 Rocket 3.6 16:42:59 10° N 16:47:24 54° E 16:51:50 10° SSE
Cosmos 1833 Rocket 4.3 16:44:02 10° N 16:45:53 17° NNE 16:45:53 17° NNE
BREEZE-M DEB (TANK) 3.9 16:46:57 10° WSW 16:51:07 81° NNW 16:59:28 24° NE
Cosmos 676 Rocket 3.9 16:45:59 10° NNW 16:51:17 77° ENE 16:56:30 10° SSE
COSMO-SKYMED 1 3.1 16:47:20 10° N 16:51:38 59° WNW 16:55:53 10° SSW
JB-3 4.3 16:50:25 25° N 16:52:31 74° WNW 16:56:16 10° SSW
Cosmos 1110 Rocket 4.1 16:51:24 10° S 16:56:26 49° ESE 16:56:54 47° E
Gbstr 26 Del rocket 4.4 16:53:20 10° S 16:56:39 25° SSE 16:56:39 25° SSE
TRACE 4.4 16:57:10 83° NNW 16:57:17 87° W 17:00:49 10° SSW
Cosmos 1655 Rocket 4.5 16:55:26 10° SSE 17:00:13 37° ESE 17:00:13 37° ESE
NOAA 6 4.5 16:57:44 10° S 17:02:48 61° WSW 17:07:52 10° NNW
Cosmos 1378 4.3 17:07:55 10° SSW 17:09:53 32° SSW 17:09:53 32° SSW
S3M 3.9 17:06:18 10° N 17:12:22 57° E 17:18:29 10° SSE
Cosmos 1553 Rocket 4.1 17:06:22 10° N 17:12:38 77° W 17:18:45 10° S
USA 234 3.8 17:11:35 27° NNE 17:14:56 51° NW 17:21:11 10° WSW
SL-08 R/B 4.3 17:18:27 18° N 17:21:31 43° WNW 17:25:56 10° SW
Cosmos 1932 4.5 17:15:33 10° SSW 17:22:05 86° WNW 17:24:00 49° NNE
Cosmos 2266 Rocket 3.7 17:16:00 10° S 17:22:06 80° E 17:24:02 46° NNE
Meteor 1-14 Rocket 4.2 17:21:34 10° NNW 17:27:07 79° W 17:32:42 10° S
Cosmos 1452 Rocket 3.8 17:30:07 10° SSW 17:35:18 62° WNW 17:35:46 59° NW
Cosmos 2278 Rocket 3.7 17:31:19 10° S 17:33:30 23° S 17:33:30 23° S
COSMOS 2455 4.0 17:32:43 10° WSW 17:38:18 39° NW 17:40:47 27° N
Meteor 2-12 Rocket 4.5 17:35:25 10° SSW 17:41:26 74° W 17:42:49 54° NNW
DELTA 2 R/B (1) 3.9 17:37:51 10° WSW 17:42:27 60° SW 17:42:27 60° SW
Centaur D AC-28 4.4 18:26:54 10° WSW 18:31:45 21° SW 18:31:45 21° SW
